Погода в Острове

Россия / Псковская область     57°20′42″N   28°20′37″E
темп.,
°C
ветер,
м/с
пор.,
м/с
влажн.,
%
обл.,
%
осадки,
мм/ч
давл.,
гПа
погр.,
м
20 января, ср
ср2000:00−14ююз33930 0.0 101752
03:00−14ю23930 0.0 101836
06:00−14ююв34950 0.0 101789
09:00−14ююв36940 0.0 1017126
12:00−11ююв49901 0.0 1017318
15:00−10ююв498615 0.0 1015405
18:00−11ююв4118898 0.0 1014384
21:00−10ююв5109099 0.0 1012425
21 января, чт
чт2100:00−10ююв51094100 0.4 1011494
03:00−9ююв51094100 1.4 1009491
06:00−8ююв41094100 0.9 1006376
09:00−5ю4894100 1.3 1006331
12:00−3ююв4894100 0.1 1005259
15:00+1ю4997100 0.1 1005325
18:00+1ю51096100 0.4 1004399
21:00+1ю41094100 0.9 1004391
22 января, пт
пт2200:000ю51093100 0.0 1003350
03:00−1ю5109499 0.0 1004260
06:00−2ю4109589 0.0 1003272
09:00−1ю599794 0.0 1003346
12:000ю61097100 0.0 1002523
15:00+1ю5995100 0.0 1002474
18:00+1ю4994100 0.0 1000363
21:00+1ю41194100 0.0 1000416
23 января, сб
сб2300:00+1ю41095100 0.0 1000373
03:00+1ююз4998100 0.0 999350
06:00+1ю3498100 0.1 999131
09:00+1ю3799100 0.1 1000190
12:00+1ю3799100 0.0 1001255
15:00+1ю37100100 0.0 1001231
18:00+1ю3898100 0.0 1001281
21:00+1ююв4998100 0.0 1001288
24 января, вс
вс2400:00+2юв41198100 0.0 999334
03:00+3ююв61498100 0.5 998490
06:00+2ююв51396100 0.9 997473
09:00+1ююв51195100 0.9 998382
12:00+2ююв5119899 0.0 998407
15:00+2ююв4109899 0.0 997327
18:00+2юв4997100 0.1 996311
21:00+1юв3699100 1.4 994169